Regional Weather Roundup
Issued by NWS

Home | Current Version | Previous Version | Graphics & Text | Print | Product List | Glossary On
Versions: 1 2 3 4 5 6 7 8 9 10 11 12 13 14 15 16 17 18 19 20 21 22 23 24 25 26 27 28 29 30 31 32 33 34 35 36 37 38 39 40 41 42 43 44 45 46 47 48 49 50
000
ASUS44 KMEG 122300
RWRTN
TENNESSEE HOURLY STATE WEATHER ROUNDUP
NATIONAL WEATHER SERVICE MEMPHIS TN
500 PM CST FRI FEB 12 2016

TNZ002-004-019-021-049-052-054-088>092-130000-
WEST TENNESSEE

CITY           SKY/WX    TMP DP  RH WIND       PRES   REMARKS
MEMPHIS INTL   CLEAR     50  27  40 N9        30.30R
NWS MEMPHIS      N/A     49 N/A N/A MISG        N/A
JACKSON        CLEAR     43  26  51 NW12      30.31R
DYERSBURG      CLEAR     43  25  49 N8        30.34R
UNION CITY     CLEAR     37  25  60 N10       30.31R WCI  30
PARIS          PTCLDY    36  23  60 N9        30.30R WCI  29
LEXINGTON      CLEAR     41  25  52 NW12      30.27R
$$

TNZ008-025-027-028-033-062-065-066-130000-
NORTH MIDDLE TENNESSEE

CITY           SKY/WX    TMP DP  RH WIND       PRES   REMARKS
NASHVILLE      MOCLDY    39  25  57 N12G20    30.25R WCI  32
CLARKSVILLE    CLOUDY    36  25  64 NW13      30.28R WCI  27
COOKEVILLE     PTCLDY    36  28  75 N7        30.19R WCI  30
CROSSVILLE     CLOUDY    33  26  75 NW9       30.14R WCI  25
$$

TNZ061-075-076-078-094-096-097-130000-
SOUTH MIDDLE TENNESSEE

CITY           SKY/WX    TMP DP  RH WIND       PRES   REMARKS
TULLAHOMA      MOCLDY    43  27  52 N9        30.18R
WINCHESTER     CLEAR     43  28  56 N8        30.17R
MCMINNVILLE    CLOUDY    39  28  65 N10       30.19R WCI  32
COLUMBIA       CLEAR     45  27  49 NW8       30.21R
SHELBYVILLE    CLEAR     43  28  56 N15       30.21R
$$

TNZ017-018-042-046-047-130000-
NORTHEAST TENNESSEE

CITY           SKY/WX    TMP DP  RH WIND       PRES   REMARKS
TRI CITIES     CLOUDY    32  28  85 W10       30.09R WCI  24
$$

TNZ012-013-036-069-073-074-130000-
CENTRAL EAST TENNESSEE

CITY           SKY/WX    TMP DP  RH WIND       PRES   REMARKS
KNOXVILLE      CLOUDY    36  29  75 VRB7      30.16R WCI  30
OAK RIDGE      CLOUDY    37  27  67 W3        30.18R
GATLINBURG     CLOUDY    34  28  80 W5        30.15R WCI  30
$$

TNZ083-085-099-130000-
SOUTHEAST TENNESSEE

CITY           SKY/WX    TMP DP  RH WIND       PRES   REMARKS
CHATTANOOGA    PTCLDY    50  26  39 NW13      30.14R
$$

SKY/WX REPORTED AS FAIR MEANS FEW OR NO CLOUDS BELOW
12 THOUSAND FEET.




USA.gov is the U.S. government's official web portal to all federal, state and local government web resources and services.